Radiation Dose at Monitoring Post of Fukushima Daini Nuclear Power Station
Date,Time,MP-1(microSv/h),MP-2(microSv/h),MP-3(microSv/h),MP-4(microSv/h),MP-5(microSv/h),MP-6(microSv/h),MP-7(microSv/h),Wind Direction,Wind Velocity(m/s),Rain
2022/02/26,00:00,0.157,0.146,0.228,0.219,0.222,0.125,0.079,-,CALM,No
2022/02/26,00:10,0.158,0.145,0.227,0.219,0.222,0.124,0.079,northwest,2.4,No
2022/02/26,00:20,0.158,0.145,0.227,0.219,0.222,0.125,0.079,west-northwest,4.9,No
2022/02/26,00:30,0.157,0.146,0.228,0.220,0.222,0.124,0.080,west-northwest,3.5,No
2022/02/26,00:40,0.157,0.145,0.228,0.221,0.222,0.125,0.080,west,3.3,No
2022/02/26,00:50,0.157,0.145,0.229,0.220,0.221,0.125,0.080,west,3.2,No
2022/02/26,01:00,0.158,0.144,0.228,0.219,0.223,0.124,0.079,west,3.8,No
2022/02/26,01:10,0.158,0.145,0.227,0.221,0.224,0.125,0.079,west,3.7,No
2022/02/26,01:20,0.158,0.144,0.228,0.219,0.223,0.125,0.080,west-southwest,1.9,No
2022/02/26,01:30,0.158,0.146,0.228,0.220,0.222,0.125,0.079,southwest,2.2,No
2022/02/26,01:40,0.157,0.145,0.228,0.220,0.222,0.125,0.079,west-southwest,2.1,No
2022/02/26,01:50,0.159,0.145,0.227,0.220,0.221,0.125,0.080,southwest,2.9,No
2022/02/26,02:00,0.158,0.144,0.228,0.220,0.224,0.125,0.080,west-southwest,2.7,No
2022/02/26,02:10,0.158,0.145,0.228,0.219,0.222,0.124,0.079,southwest,3.2,No
2022/02/26,02:20,0.158,0.145,0.228,0.220,0.223,0.124,0.080,southwest,2.5,No
2022/02/26,02:30,0.158,0.145,0.227,0.220,0.222,0.125,0.080,southwest,2.7,No
2022/02/26,02:40,0.159,0.145,0.228,0.220,0.223,0.125,0.079,southwest,2.1,No
2022/02/26,02:50,0.158,0.145,0.227,0.220,0.223,0.126,0.079,west-southwest,2.1,No
2022/02/26,03:00,0.158,0.145,0.228,0.220,0.221,0.125,0.079,southwest,2.2,No
2022/02/26,03:10,0.156,0.145,0.228,0.219,0.223,0.126,0.079,south-southwest,2.1,No
2022/02/26,03:20,0.158,0.145,0.228,0.219,0.223,0.125,0.080,south-southwest,2.4,No
2022/02/26,03:30,0.158,0.145,0.227,0.219,0.224,0.125,0.080,south-southwest,1.3,No
2022/02/26,03:40,0.158,0.145,0.228,0.221,0.223,0.125,0.079,south-southwest,1.8,No
2022/02/26,03:50,0.158,0.145,0.227,0.220,0.222,0.124,0.080,southwest,1.3,No
2022/02/26,04:00,0.158,0.145,0.228,0.221,0.222,0.125,0.080,west-southwest,1.1,No
2022/02/26,04:10,0.158,0.145,0.229,0.221,0.222,0.125,0.080,west-northwest,1.1,No
2022/02/26,04:20,0.158,0.144,0.228,0.220,0.223,0.124,0.080,-,CALM,No
2022/02/26,04:30,0.158,0.145,0.228,0.219,0.223,0.125,0.079,-,CALM,No
2022/02/26,04:40,0.157,0.145,0.228,0.220,0.222,0.125,0.079,west,0.7,No
2022/02/26,04:50,0.158,0.145,0.227,0.221,0.223,0.125,0.079,west-southwest,0.7,No
2022/02/26,05:00,0.157,0.146,0.229,0.220,0.222,0.126,0.080,south-southwest,0.7,No
2022/02/26,05:10,0.158,0.145,0.229,0.221,0.222,0.126,0.080,-,CALM,No
2022/02/26,05:20,0.158,0.145,0.228,0.219,0.222,0.124,0.079,-,CALM,No
2022/02/26,05:30,0.159,0.145,0.228,0.220,0.223,0.125,0.080,east,0.7,No
2022/02/26,05:40,0.157,0.144,0.229,0.220,0.223,0.126,0.079,east-southeast,1.3,No
2022/02/26,05:50,0.159,0.146,0.228,0.219,0.224,0.125,0.080,southeast,0.7,No
2022/02/26,06:00,0.159,0.145,0.229,0.219,0.222,0.126,0.080,south,1.6,No
2022/02/26,06:10,0.158,0.145,0.228,0.219,0.222,0.125,0.080,south-southwest,1.6,No
2022/02/26,06:20,0.157,0.144,0.227,0.219,0.223,0.125,0.080,south-southwest,1.3,No
2022/02/26,06:30,0.158,0.145,0.228,0.220,0.223,0.125,0.080,south,0.8,No
2022/02/26,06:40,0.158,0.145,0.228,0.219,0.222,0.124,0.080,south,2.2,No
2022/02/26,06:50,0.158,0.144,0.227,0.220,0.223,0.125,0.080,south,3.2,No
2022/02/26,07:00,0.158,0.145,0.227,0.220,0.222,0.125,0.080,south-southwest,3.5,No
2022/02/26,07:10,0.158,0.145,0.226,0.219,0.221,0.125,0.080,south,4.1,No
2022/02/26,07:20,0.158,0.145,0.229,0.219,0.222,0.125,0.080,south-southwest,4.3,No
2022/02/26,07:30,0.158,0.145,0.227,0.219,0.222,0.125,0.080,south-southwest,4.1,No
2022/02/26,07:40,0.158,0.144,0.228,0.219,0.222,0.124,0.079,south-southwest,4.3,No
2022/02/26,07:50,0.157,0.145,0.227,0.218,0.223,0.124,0.079,south-southwest,4.1,No
2022/02/26,08:00,0.158,0.145,0.226,0.219,0.222,0.126,0.079,south,3.7,No
2022/02/26,08:10,0.157,0.145,0.227,0.219,0.223,0.125,0.079,south,3.8,No
2022/02/26,08:20,0.157,0.145,0.228,0.220,0.223,0.125,0.079,south-southwest,2.7,No
2022/02/26,08:30,0.158,0.144,0.227,0.219,0.223,0.125,0.079,south,2.2,No
2022/02/26,08:40,0.158,0.145,0.228,0.219,0.222,0.125,0.079,southwest,0.7,No
2022/02/26,08:50,0.158,0.144,0.227,0.219,0.223,0.125,0.079,west-southwest,3.0,No
2022/02/26,09:00,0.158,0.144,0.226,0.219,0.222,0.125,0.079,west,4.1,No
2022/02/26,09:10,0.158,0.143,0.227,0.218,0.222,0.125,0.079,south-southwest,2.1,No
2022/02/26,09:20,0.157,0.143,0.227,0.220,0.223,0.125,0.079,-,CALM,No
2022/02/26,09:30,0.157,0.144,0.228,0.217,0.223,0.125,0.079,west-northwest,3.0,Yes
2022/02/26,09:40,0.157,0.143,0.227,0.218,0.222,0.123,0.079,west,1.6,Yes
2022/02/26,09:50,0.156,0.144,0.228,0.218,0.223,0.124,0.079,west,0.7,Yes
2022/02/26,10:00,0.156,0.144,0.227,0.217,0.221,0.123,0.079,west,4.7,No
2022/02/26,10:10,0.157,0.143,0.227,0.219,0.224,0.124,0.079,west-southwest,5.2,No
2022/02/26,10:20,0.156,0.144,0.227,0.219,0.222,0.124,0.079,southwest,5.2,No
2022/02/26,10:30,0.157,0.144,0.226,0.219,0.223,0.125,0.079,southwest,4.0,No
2022/02/26,10:40,0.156,0.144,0.226,0.217,0.221,0.124,0.080,south-southwest,3.2,No
2022/02/26,10:50,0.156,0.144,0.225,0.218,0.223,0.126,0.080,south-southeast,3.8,No
2022/02/26,11:00,0.157,0.144,0.226,0.217,0.221,0.125,0.078,south,3.5,No
2022/02/26,11:10,0.156,0.143,0.225,0.220,0.222,0.125,0.080,south,2.2,No
2022/02/26,11:20,0.156,0.144,0.227,0.218,0.223,0.125,0.079,west-southwest,2.4,No
2022/02/26,11:30,0.156,0.144,0.226,0.219,0.221,0.125,0.079,west-northwest,5.9,No
2022/02/26,11:40,0.157,0.144,0.226,0.220,0.224,0.124,0.080,west-northwest,5.7,No
2022/02/26,11:50,0.157,0.143,0.226,0.218,0.220,0.124,0.079,west-southwest,5.2,No
2022/02/26,12:00,0.157,0.143,0.225,0.219,0.223,0.124,0.078,west-southwest,3.8,No
2022/02/26,12:10,0.157,0.144,0.227,0.218,0.222,0.124,0.079,west-southwest,3.8,No
2022/02/26,12:20,0.156,0.144,0.225,0.219,0.222,0.124,0.079,south-southeast,3.3,No
2022/02/26,12:30,0.158,0.144,0.227,0.218,0.223,0.124,0.078,south-southeast,7.2,No
2022/02/26,12:40,0.156,0.145,0.226,0.219,0.222,0.125,0.079,south-southeast,7.4,No
2022/02/26,12:50,0.157,0.145,0.227,0.219,0.224,0.125,0.079,south-southeast,7.1,No
2022/02/26,13:00,0.157,0.145,0.227,0.221,0.222,0.125,0.079,south-southeast,7.0,No
2022/02/26,13:10,0.156,0.145,0.228,0.219,0.224,0.125,0.080,southeast,7.6,No
2022/02/26,13:20,0.158,0.144,0.228,0.220,0.223,0.125,0.079,south-southeast,6.9,No
2022/02/26,13:30,0.157,0.145,0.227,0.220,0.224,0.125,0.079,south-southeast,7.4,No
2022/02/26,13:40,0.158,0.145,0.226,0.220,0.224,0.125,0.079,south-southeast,5.5,No
2022/02/26,13:50,0.157,0.145,0.229,0.219,0.224,0.125,0.079,south-southeast,7.6,No
2022/02/26,14:00,0.157,0.145,0.226,0.220,0.223,0.125,0.079,south-southeast,6.4,No
2022/02/26,14:10,0.157,0.144,0.228,0.221,0.223,0.125,0.079,south-southeast,6.5,No
2022/02/26,14:20,0.157,0.145,0.227,0.220,0.222,0.125,0.079,south-southeast,6.3,No
2022/02/26,14:30,0.158,0.144,0.227,0.220,0.222,0.126,0.079,south-southeast,7.4,No
2022/02/26,14:40,0.157,0.145,0.227,0.219,0.223,0.125,0.079,south-southeast,6.4,No
2022/02/26,14:50,0.158,0.145,0.227,0.221,0.223,0.125,0.079,south-southeast,5.0,No
2022/02/26,15:00,0.157,0.145,0.229,0.220,0.222,0.125,0.079,south-southeast,4.8,No
2022/02/26,15:10,0.158,0.145,0.227,0.220,0.223,0.125,0.079,south-southeast,5.0,No
2022/02/26,15:20,0.157,0.145,0.228,0.221,0.223,0.125,0.079,south,6.1,No
2022/02/26,15:30,0.158,0.145,0.230,0.220,0.224,0.125,0.079,south,4.8,No
2022/02/26,15:40,0.157,0.145,0.228,0.220,0.223,0.125,0.079,south-southeast,4.1,No
2022/02/26,15:50,0.158,0.145,0.229,0.222,0.224,0.125,0.080,south-southeast,5.2,No
2022/02/26,16:00,0.158,0.145,0.228,0.219,0.223,0.125,0.079,south,4.6,No
2022/02/26,16:10,0.157,0.146,0.228,0.220,0.223,0.125,0.079,south,3.7,No
2022/02/26,16:20,0.158,0.144,0.227,0.220,0.225,0.126,0.079,south,2.7,No
2022/02/26,16:30,0.157,0.145,0.229,0.219,0.224,0.125,0.078,south,3.5,No
2022/02/26,16:40,0.157,0.145,0.228,0.220,0.223,0.126,0.079,south-southeast,4.1,No
2022/02/26,16:50,0.158,0.145,0.228,0.220,0.224,0.126,0.079,south-southeast,3.3,No
2022/02/26,17:00,0.157,0.145,0.229,0.220,0.222,0.125,0.080,south-southeast,2.4,No
2022/02/26,17:10,0.158,0.146,0.226,0.220,0.223,0.125,0.079,west-southwest,1.1,No
2022/02/26,17:20,0.159,0.145,0.228,0.222,0.223,0.126,0.079,west-northwest,1.9,No
2022/02/26,17:30,0.158,0.145,0.228,0.220,0.222,0.125,0.080,northwest,2.4,No
2022/02/26,17:40,0.157,0.145,0.228,0.219,0.223,0.125,0.080,west-northwest,2.2,No
2022/02/26,17:50,0.159,0.145,0.227,0.220,0.222,0.125,0.079,west-northwest,2.9,No
2022/02/26,18:00,0.159,0.144,0.228,0.220,0.223,0.125,0.079,northwest,2.2,No
2022/02/26,18:10,0.158,0.145,0.228,0.220,0.223,0.125,0.079,west-northwest,4.6,No
2022/02/26,18:20,0.157,0.145,0.227,0.220,0.223,0.125,0.079,west-northwest,4.7,No
2022/02/26,18:30,0.157,0.145,0.227,0.220,0.222,0.125,0.080,west-northwest,5.5,No
2022/02/26,18:40,0.158,0.144,0.228,0.221,0.223,0.124,0.079,west-northwest,4.1,No
2022/02/26,18:50,0.158,0.146,0.228,0.220,0.222,0.125,0.079,west-northwest,5.1,No
2022/02/26,19:00,0.158,0.145,0.228,0.219,0.222,0.125,0.079,west-northwest,6.0,No
2022/02/26,19:10,0.158,0.145,0.228,0.222,0.222,0.125,0.079,west-northwest,6.2,No
2022/02/26,19:20,0.158,0.145,0.227,0.220,0.223,0.125,0.079,west,6.2,No
2022/02/26,19:30,0.158,0.145,0.228,0.221,0.223,0.126,0.079,west,5.7,No
2022/02/26,19:40,0.158,0.145,0.229,0.220,0.223,0.124,0.079,west,3.8,No
2022/02/26,19:50,0.158,0.144,0.227,0.220,0.223,0.125,0.079,west,5.0,No
2022/02/26,20:00,0.157,0.144,0.227,0.220,0.222,0.126,0.079,west,4.8,No
2022/02/26,20:10,0.158,0.145,0.229,0.219,0.223,0.125,0.079,west,6.2,No
2022/02/26,20:20,0.158,0.144,0.228,0.220,0.221,0.125,0.080,west,5.2,No
2022/02/26,20:30,0.158,0.145,0.227,0.220,0.223,0.125,0.079,west,5.5,No
2022/02/26,20:40,0.158,0.145,0.227,0.221,0.223,0.125,0.080,west,6.7,No
2022/02/26,20:50,0.158,0.144,0.227,0.220,0.223,0.125,0.080,west,5.7,No
2022/02/26,21:00,0.159,0.146,0.229,0.220,0.223,0.125,0.079,west,4.8,No
2022/02/26,21:10,0.158,0.145,0.229,0.221,0.222,0.125,0.080,west,5.0,No
2022/02/26,21:20,0.157,0.146,0.229,0.220,0.223,0.126,0.080,west,5.1,No
2022/02/26,21:30,0.158,0.145,0.229,0.219,0.224,0.126,0.080,west-southwest,5.2,No
2022/02/26,21:40,0.158,0.145,0.227,0.220,0.223,0.124,0.080,west,3.5,No
2022/02/26,21:50,0.158,0.145,0.228,0.221,0.223,0.125,0.080,west,3.3,No
2022/02/26,22:00,0.157,0.145,0.228,0.220,0.222,0.125,0.079,west,3.3,No
2022/02/26,22:10,0.158,0.145,0.228,0.220,0.222,0.125,0.079,west,3.0,No
2022/02/26,22:20,0.158,0.145,0.228,0.220,0.223,0.125,0.080,west,1.6,No
2022/02/26,22:30,0.158,0.146,0.229,0.221,0.223,0.125,0.079,north,0.8,No
2022/02/26,22:40,0.158,0.145,0.229,0.220,0.222,0.125,0.079,west-northwest,4.0,No
2022/02/26,22:50,0.157,0.145,0.228,0.219,0.223,0.125,0.080,northwest,3.3,No
2022/02/26,23:00,0.158,0.145,0.229,0.220,0.222,0.126,0.080,northeast,1.3,No
2022/02/26,23:10,0.158,0.145,0.228,0.221,0.222,0.125,0.080,south-southwest,0.8,No
2022/02/26,23:20,0.157,0.144,0.228,0.221,0.222,0.125,0.079,west,2.5,No
2022/02/26,23:30,0.158,0.146,0.229,0.219,0.222,0.125,0.079,west,0.8,No
2022/02/26,23:40,0.157,0.145,0.228,0.219,0.223,0.125,0.079,west,1.1,No
2022/02/26,23:50,0.158,0.144,0.228,0.220,0.222,0.125,0.080,west-northwest,2.1,No
